Regional Weather Roundup
Issued by NWS Jackson, KY

Home | Current Version | Previous Version | Text Only | Print | Product List | Glossary Off
Versions: 1 2 3 4 5 6 7 8 9 10 11 12 13 14 15 16 17 18 19 20 21 22 23 24 25 26 27 28 29 30 31 32 33 34 35 36 37 38 39 40 41 42 43 44 45 46 47 48 49 50

000
ASUS43 KJKL 211719
RWRJKL

EAST KENTUCKY HOURLY WEATHER ROUNDUP
NATIONAL WEATHER SERVICE JACKSON KY
100 PM EDT THU AUG 21 2014

NOTE: "FAIR" INDICATES FEW OR NO CLOUDS BELOW 12,000 FEET WITH
NO SIGNIFICANT WEATHER AND/OR OBSTRUCTIONS TO VISIBILITY.

* THESE REPORTS ARE NOT UNDER NWS QUALITY CONTROL AND MAY NOT
  REPORT WEATHER SUCH AS PRECIPITATION AND FOG.

KYZ079-080-083-085-087-088-110-112-115-119-120-211800
...EASTERN KENTUCKY...

CITY           SKY/WX    TMP DP  RH WIND       PRES   REMARKS
JACKSON        MOSUNNY   81  72  74 VRB3      30.15F
LONDON         MOSUNNY   85  71  63 W10       30.17S HX  90
SOMERSET*      PTSUNNY   81  73  78 SW7       30.17S
MONTICELLO*    PTSUNNY   84  74  72 SW9       30.18S HX  91
WILLIAMSBURG*  MOSUNNY   82  73  74 W5        30.17F
MIDDLESBORO*   MOSUNNY   80  70  71 SE3       30.19F
HARLAN APT*    MOSUNNY   81  68  65 MISG      30.19F
BLACK MTN*       N/A     72  68  88 W1          N/A
PIKEVILLE APT* MOSUNNY   77  70  78 S5        30.16S
BIG SANDY*     PTSUNNY   79  70  73 S6        30.14F
MOREHEAD APT*  CLOUDY    79  72  78 SW5       30.14S
ASHLAND*       PTSUNNY   81  70  69 SW6       30.08
$$

KYZ035-036-041-042-044-050-067-078-099-211800
...CENTRAL KENTUCKY...

CITY           SKY/WX    TMP DP  RH WIND       PRES   REMARKS
MT STERLING*   CLOUDY    79  73  83 NW3       30.13F
FLEMING/MASON* CLOUDY    79  72  78 SW6       30.11F
DANVILLE*      PTSUNNY   86  73  66 W12       30.13F HX  93
RICHMOND*      PTSUNNY   81  72  74 SW9G16    30.13R
LEXINGTON      PTSUNNY   84  73  69 SW7       30.11S HX  90
FRANKFORT      PTSUNNY   81  73  76 W8        30.09S
$$

KYZ091>093-OHZ055-061-077-WVZ005-015-034-035-042-211800
...SOUTHERN OHIO/WEST VIRGINIA...

CITY           SKY/WX    TMP DP  RH WIND       PRES   REMARKS
COVINGTON      LGT RAIN  75  72  88 S3        30.11R
COLUMBUS       LGT RAIN  73  69  87 W3        30.10S FOG
DAYTON         HVY RAIN  72  70  93 SW6       30.11F FOG
WILMINGTON     RAIN      69  67  93 SW3       30.12F FOG
HUNTINGTON     PTSUNNY   79  70  74 SW9       30.10S
CHARLESTON     CLOUDY    81  70  69 VRB6      30.09F
PINEVILLE*     MOSUNNY   84  71  65 MISG      30.20F
BECKLEY        PTSUNNY   76  63  64 S3        30.19F
BLUEFIELD      PTSUNNY   80  63  55 NW6       30.23F
$$

VAZ002-007-008-TNZ017-027-036-066-071-211800
...SOUTHWEST VIRGINIA/EAST TENNESSEE...

CITY           SKY/WX    TMP DP  RH WIND       PRES   REMARKS
WISE*          CLOUDY    77  70  78 S3        30.25S
JONESVILLE*      N/A     77  68  73 CALM      30.23S
ABINGDON*      CLOUDY    76  69  78 W5        30.23S
BRISTOL        PTSUNNY   77  67  71 VRB7      30.21S
KNOXVILLE      MOSUNNY   82  71  69 CALM      30.17F
OAK RIDGE      MOSUNNY   81  71  71 CALM      30.19F
CROSSVILLE     MOSUNNY   81  68  64 NW10      30.23S
NASHVILLE      MOSUNNY   90  71  53 W10       30.14F HX  96
$$

...KEY TO REMARKS...
VSB - VISIBILITY IN MILES
WCI - WIND CHILL INDEX
HX  - HEAT INDEX

$$


USA.gov is the U.S. government's official web portal to all federal, state and local government web resources and services.